Location: Street
(51.1247°N, 2.7429°W)
Time: 10:09:59
(UTC+00:00)

Tiros 1 - Pass Details

Date: 03 December 2020
Orbit: 630 x 663 km, 48.4° (Epoch: 21 January)

Event Time Altitude Azimuth Distance (km) Brightness Sun altitude
Rises 18:34:09 0° 279° (W) 2,994 11.9 -22.2°
Reaches altitude 10° 18:36:38 10° 271° (W) 2,077 10.8 -22.6°
Maximum altitude 18:41:03 38° 204° (SSW) 1,002 8.3 -23.3°
Enters shadow 18:42:40 29° 163° (SSE) 1,199 8.4 -23.5°
Drops below altitude 10° 18:45:26 10° 137° (SE) 2,054 - -24.0°
Sets 18:47:52 0° 129° (SE) 2,957 - -24.4°
